Year,Month,Day,Hour,Minute,Value (Times are PST for temperature in C)
2010,07,08,00,00,20.20
2010,07,08,00,01,20.10
2010,07,08,00,02,20.10
2010,07,08,00,03,20.00
2010,07,08,00,04,20.00
2010,07,08,00,05,19.90
2010,07,08,00,06,19.90
2010,07,08,00,07,19.80
2010,07,08,00,08,19.80
2010,07,08,00,09,19.80
2010,07,08,00,10,19.70
2010,07,08,00,11,19.70
2010,07,08,00,12,19.60
2010,07,08,00,13,19.60
2010,07,08,00,14,19.60
2010,07,08,00,15,19.60
2010,07,08,00,16,19.50
2010,07,08,00,17,19.50
2010,07,08,00,18,19.40
2010,07,08,00,19,19.40
2010,07,08,00,20,19.30
2010,07,08,00,21,19.30
2010,07,08,00,22,19.30
2010,07,08,00,23,19.20
2010,07,08,00,24,19.20
2010,07,08,00,25,19.20
2010,07,08,00,26,19.20
2010,07,08,00,27,19.20
2010,07,08,00,28,19.10
2010,07,08,00,29,19.10
2010,07,08,00,30,19.10
2010,07,08,00,31,19.00
2010,07,08,00,32,19.00
2010,07,08,00,33,18.90
2010,07,08,00,34,18.90
2010,07,08,00,35,18.80
2010,07,08,00,36,18.80
2010,07,08,00,37,18.80
2010,07,08,00,38,18.70
2010,07,08,00,39,18.70
2010,07,08,00,40,18.70
2010,07,08,00,41,18.70
2010,07,08,00,42,18.70
2010,07,08,00,43,18.70
2010,07,08,00,44,18.70
2010,07,08,00,45,18.70
2010,07,08,00,46,18.60
2010,07,08,00,47,18.60
2010,07,08,00,48,18.60
2010,07,08,00,49,18.60
2010,07,08,00,50,18.50
2010,07,08,00,51,18.40
2010,07,08,00,52,18.40
2010,07,08,00,53,18.40
2010,07,08,00,54,18.30
2010,07,08,00,55,18.30
2010,07,08,00,56,18.30
2010,07,08,00,57,18.20
2010,07,08,00,58,18.20
2010,07,08,00,59,18.10
2010,07,08,01,00,18.10
2010,07,08,01,01,18.10
2010,07,08,01,02,18.10
2010,07,08,01,03,18.00
2010,07,08,01,04,18.00
2010,07,08,01,05,18.00
2010,07,08,01,06,17.90
2010,07,08,01,07,17.90
2010,07,08,01,08,17.90
2010,07,08,01,09,17.90
2010,07,08,01,10,17.90
2010,07,08,01,11,17.90
2010,07,08,01,12,17.90
2010,07,08,01,13,17.80
2010,07,08,01,14,17.80
2010,07,08,01,15,17.80
2010,07,08,01,16,17.80
2010,07,08,01,17,17.80
2010,07,08,01,18,17.70
2010,07,08,01,19,17.70
2010,07,08,01,20,17.70
2010,07,08,01,21,17.70
2010,07,08,01,22,17.70
2010,07,08,01,23,17.70
2010,07,08,01,24,17.70
2010,07,08,01,25,17.60
2010,07,08,01,26,17.60
2010,07,08,01,27,17.60
2010,07,08,01,28,17.60
2010,07,08,01,29,17.60
2010,07,08,01,30,17.60
2010,07,08,01,31,17.50
2010,07,08,01,32,17.50
2010,07,08,01,33,17.50
2010,07,08,01,34,17.40
2010,07,08,01,35,17.40
2010,07,08,01,36,17.30
2010,07,08,01,37,17.30
2010,07,08,01,38,17.30
2010,07,08,01,39,17.40
2010,07,08,01,40,17.40
2010,07,08,01,41,17.50
2010,07,08,01,42,17.70
2010,07,08,01,43,18.00
2010,07,08,01,44,18.20
2010,07,08,01,45,18.30
2010,07,08,01,46,18.40
2010,07,08,01,47,18.50
2010,07,08,01,48,18.50
2010,07,08,01,49,18.60
2010,07,08,01,50,18.60
2010,07,08,01,51,18.70
2010,07,08,01,52,18.70
2010,07,08,01,53,18.80
2010,07,08,01,54,18.90
2010,07,08,01,55,18.90
2010,07,08,01,56,18.90
2010,07,08,01,57,18.90
2010,07,08,01,58,18.90
2010,07,08,01,59,18.90
2010,07,08,02,00,18.90
2010,07,08,02,01,18.90
2010,07,08,02,02,18.90
2010,07,08,02,03,18.90
2010,07,08,02,04,18.90
2010,07,08,02,05,18.90
2010,07,08,02,06,18.90
2010,07,08,02,07,18.90
2010,07,08,02,08,18.90
2010,07,08,02,09,18.90
2010,07,08,02,10,18.80
2010,07,08,02,11,18.80
2010,07,08,02,12,18.80
2010,07,08,02,13,18.80
2010,07,08,02,14,18.80
2010,07,08,02,15,18.80
2010,07,08,02,16,18.80
2010,07,08,02,17,18.80
2010,07,08,02,18,18.90
2010,07,08,02,19,18.90
2010,07,08,02,20,19.00
2010,07,08,02,21,19.10
2010,07,08,02,22,19.20
2010,07,08,02,23,19.20
2010,07,08,02,24,19.20
2010,07,08,02,25,19.20
2010,07,08,02,26,19.20
2010,07,08,02,27,19.10
2010,07,08,02,28,19.10
2010,07,08,02,29,19.10
2010,07,08,02,30,19.10
2010,07,08,02,31,19.10
2010,07,08,02,32,19.10
2010,07,08,02,33,19.10
2010,07,08,02,34,19.10
2010,07,08,02,35,19.10
2010,07,08,02,36,19.00
2010,07,08,02,37,19.00
2010,07,08,02,38,19.00
2010,07,08,02,39,19.00
2010,07,08,02,40,18.90
2010,07,08,02,41,18.90
2010,07,08,02,42,18.90
2010,07,08,02,43,18.90
2010,07,08,02,44,18.90
2010,07,08,02,45,18.90
2010,07,08,02,46,18.90
2010,07,08,02,47,18.90
2010,07,08,02,48,18.90
2010,07,08,02,49,18.80
2010,07,08,02,50,18.80
2010,07,08,02,51,18.80
2010,07,08,02,52,18.80
2010,07,08,02,53,18.70
2010,07,08,02,54,18.70
2010,07,08,02,55,18.70
2010,07,08,02,56,18.60
2010,07,08,02,57,18.60
2010,07,08,02,58,18.60
2010,07,08,02,59,18.50
2010,07,08,03,00,18.50
2010,07,08,03,01,18.40
2010,07,08,03,02,18.40
2010,07,08,03,03,18.40
2010,07,08,03,04,18.30
2010,07,08,03,05,18.30
2010,07,08,03,06,18.30
2010,07,08,03,07,18.30
2010,07,08,03,08,18.20
2010,07,08,03,09,18.20
2010,07,08,03,10,18.20
2010,07,08,03,11,18.10
2010,07,08,03,12,18.10
2010,07,08,03,13,18.10
2010,07,08,03,14,18.10
2010,07,08,03,15,18.10
2010,07,08,03,16,18.10
2010,07,08,03,17,18.10
2010,07,08,03,18,18.10
2010,07,08,03,19,18.10
2010,07,08,03,20,18.10
2010,07,08,03,21,18.10
2010,07,08,03,22,18.10
2010,07,08,03,23,18.10
2010,07,08,03,24,18.10
2010,07,08,03,25,18.10
2010,07,08,03,26,18.10
2010,07,08,03,27,18.10
2010,07,08,03,28,18.10
2010,07,08,03,29,18.10
2010,07,08,03,30,18.10
2010,07,08,03,31,18.10
2010,07,08,03,32,18.10
2010,07,08,03,33,18.10
2010,07,08,03,34,18.10
2010,07,08,03,35,18.10
2010,07,08,03,36,18.10
2010,07,08,03,37,18.10
2010,07,08,03,38,18.10
2010,07,08,03,39,18.00
2010,07,08,03,40,18.00
2010,07,08,03,41,18.00
2010,07,08,03,42,17.90
2010,07,08,03,43,17.90
2010,07,08,03,44,17.90
2010,07,08,03,45,17.90
2010,07,08,03,46,17.90
2010,07,08,03,47,17.90
2010,07,08,03,48,17.80
2010,07,08,03,49,17.80
2010,07,08,03,50,17.80
2010,07,08,03,51,17.80
2010,07,08,03,52,17.80
2010,07,08,03,53,17.70
2010,07,08,03,54,17.70
2010,07,08,03,55,17.70
2010,07,08,03,56,17.70
2010,07,08,03,57,17.70
2010,07,08,03,58,17.60
2010,07,08,03,59,17.60
2010,07,08,04,00,17.60
2010,07,08,04,01,17.60
2010,07,08,04,02,17.60
2010,07,08,04,03,17.50
2010,07,08,04,04,17.50
2010,07,08,04,05,17.50
2010,07,08,04,06,17.40
2010,07,08,04,07,17.40
2010,07,08,04,08,17.40
2010,07,08,04,09,17.40
2010,07,08,04,10,17.40
2010,07,08,04,11,17.40
2010,07,08,04,12,17.30
2010,07,08,04,13,17.30
2010,07,08,04,14,17.30
2010,07,08,04,15,17.20
2010,07,08,04,16,17.20
2010,07,08,04,17,17.10
2010,07,08,04,18,17.10
2010,07,08,04,19,17.10
2010,07,08,04,20,17.00
2010,07,08,04,21,17.00
2010,07,08,04,22,17.00
2010,07,08,04,23,16.90
2010,07,08,04,24,16.90
2010,07,08,04,25,16.90
2010,07,08,04,26,16.90
2010,07,08,04,27,16.90
2010,07,08,04,28,16.80
2010,07,08,04,29,16.80
2010,07,08,04,30,16.80
2010,07,08,04,31,16.80
2010,07,08,04,32,16.80
2010,07,08,04,33,16.80
2010,07,08,04,34,16.80
2010,07,08,04,35,16.80
2010,07,08,04,36,16.80
2010,07,08,04,37,16.80
2010,07,08,04,38,16.70
2010,07,08,04,39,16.70
2010,07,08,04,40,16.70
2010,07,08,04,41,16.70
2010,07,08,04,42,16.70
2010,07,08,04,43,16.60
2010,07,08,04,44,16.60
2010,07,08,04,45,16.60
2010,07,08,04,46,16.60
2010,07,08,04,47,16.60
2010,07,08,04,48,16.60
2010,07,08,04,49,16.60
2010,07,08,04,50,16.60
2010,07,08,04,51,16.70
2010,07,08,04,52,16.70
2010,07,08,04,53,16.80
2010,07,08,04,54,16.80
2010,07,08,04,55,16.80
2010,07,08,04,56,16.80
2010,07,08,04,57,16.80
2010,07,08,04,58,16.80
2010,07,08,04,59,16.80
2010,07,08,05,00,16.80
2010,07,08,05,01,16.80
2010,07,08,05,02,16.80
2010,07,08,05,03,16.80
2010,07,08,05,04,16.80
2010,07,08,05,05,16.80
2010,07,08,05,06,16.70
2010,07,08,05,07,16.70
2010,07,08,05,08,16.70
2010,07,08,05,09,16.70
2010,07,08,05,10,16.60
2010,07,08,05,11,16.60
2010,07,08,05,12,16.60
2010,07,08,05,13,16.50
2010,07,08,05,14,16.50
2010,07,08,05,15,16.40
2010,07,08,05,16,16.40
2010,07,08,05,17,16.40
2010,07,08,05,18,16.40
2010,07,08,05,19,16.30
2010,07,08,05,20,16.30
2010,07,08,05,21,16.20
2010,07,08,05,22,16.20
2010,07,08,05,23,16.10
2010,07,08,05,24,16.10
2010,07,08,05,25,16.10
2010,07,08,05,26,16.00
2010,07,08,05,27,16.00
2010,07,08,05,28,15.90
2010,07,08,05,29,15.90
2010,07,08,05,30,15.90
2010,07,08,05,31,15.90
2010,07,08,05,32,15.90
2010,07,08,05,33,15.90
2010,07,08,05,34,15.90
2010,07,08,05,35,15.90
2010,07,08,05,36,15.90
2010,07,08,05,37,15.90
2010,07,08,05,38,15.90
2010,07,08,05,39,15.90
2010,07,08,05,40,15.90
2010,07,08,05,41,15.90
2010,07,08,05,42,15.90
2010,07,08,05,43,15.90
2010,07,08,05,44,15.90
2010,07,08,05,45,15.90
2010,07,08,05,46,16.00
2010,07,08,05,47,16.00
2010,07,08,05,48,16.10
2010,07,08,05,49,16.10
2010,07,08,05,50,16.20
2010,07,08,05,51,16.20
2010,07,08,05,52,16.20
2010,07,08,05,53,16.20
2010,07,08,05,54,16.30
2010,07,08,05,55,16.30
2010,07,08,05,56,16.30
2010,07,08,05,57,16.30
2010,07,08,05,58,16.40
2010,07,08,05,59,16.40
2010,07,08,06,00,16.40
2010,07,08,06,01,16.50
2010,07,08,06,02,16.50
2010,07,08,06,03,16.60
2010,07,08,06,04,16.60
2010,07,08,06,05,16.60
2010,07,08,06,06,16.70
2010,07,08,06,07,16.70
2010,07,08,06,08,16.80
2010,07,08,06,09,16.80
2010,07,08,06,10,16.80
2010,07,08,06,11,16.80
2010,07,08,06,12,16.90
2010,07,08,06,13,16.90
2010,07,08,06,14,16.90
2010,07,08,06,15,16.90
2010,07,08,06,16,17.00
2010,07,08,06,17,17.00
2010,07,08,06,18,17.10
2010,07,08,06,19,17.10
2010,07,08,06,20,17.10
2010,07,08,06,21,17.20
2010,07,08,06,22,17.20
2010,07,08,06,23,17.20
2010,07,08,06,24,17.30
2010,07,08,06,25,17.30
2010,07,08,06,26,17.30
2010,07,08,06,27,17.30
2010,07,08,06,28,17.40
2010,07,08,06,29,17.40
2010,07,08,06,30,17.40
2010,07,08,06,31,17.40
2010,07,08,06,32,17.50
2010,07,08,06,33,17.50
2010,07,08,06,34,17.60
2010,07,08,06,35,17.60
2010,07,08,06,36,17.60
2010,07,08,06,37,17.60
2010,07,08,06,38,17.70
2010,07,08,06,39,17.70
2010,07,08,06,40,17.70
2010,07,08,06,41,17.70
2010,07,08,06,42,17.70
2010,07,08,06,43,17.70
2010,07,08,06,44,17.80
2010,07,08,06,45,17.80
2010,07,08,06,46,17.80
2010,07,08,06,47,17.80
2010,07,08,06,48,17.80
2010,07,08,06,49,17.80
2010,07,08,06,50,17.90
2010,07,08,06,51,17.90
2010,07,08,06,52,17.90
2010,07,08,06,53,18.00
2010,07,08,06,54,18.00
2010,07,08,06,55,18.00
2010,07,08,06,56,18.10
2010,07,08,06,57,18.10
2010,07,08,06,58,18.10
2010,07,08,06,59,18.20
2010,07,08,07,00,18.20
2010,07,08,07,01,18.20
2010,07,08,07,02,18.20
2010,07,08,07,03,18.30
2010,07,08,07,04,18.30
2010,07,08,07,05,18.30
2010,07,08,07,06,18.40
2010,07,08,07,07,18.40
2010,07,08,07,08,18.50
2010,07,08,07,09,18.60
2010,07,08,07,10,18.60
2010,07,08,07,11,18.70
2010,07,08,07,12,18.70
2010,07,08,07,13,18.80
2010,07,08,07,14,18.80
2010,07,08,07,15,18.90
2010,07,08,07,16,18.90
2010,07,08,07,17,18.90
2010,07,08,07,18,19.00
2010,07,08,07,19,19.00
2010,07,08,07,20,19.10
2010,07,08,07,21,19.10
2010,07,08,07,22,19.10
2010,07,08,07,23,19.20
2010,07,08,07,24,19.20
2010,07,08,07,25,19.20
2010,07,08,07,26,19.20
2010,07,08,07,27,19.30
2010,07,08,07,28,19.30
2010,07,08,07,29,19.30
2010,07,08,07,30,19.40
2010,07,08,07,31,19.50
2010,07,08,07,32,19.50
2010,07,08,07,33,19.60
2010,07,08,07,34,19.60
2010,07,08,07,35,19.70
2010,07,08,07,36,19.90
2010,07,08,07,37,20.00
2010,07,08,07,38,20.20
2010,07,08,07,39,20.30
2010,07,08,07,40,20.50
2010,07,08,07,41,20.60
2010,07,08,07,42,20.70
2010,07,08,07,43,20.70
2010,07,08,07,44,20.80
2010,07,08,07,45,20.80
2010,07,08,07,46,20.90
2010,07,08,07,47,21.00
2010,07,08,07,48,21.00
2010,07,08,07,49,21.10
2010,07,08,07,50,21.20
2010,07,08,07,51,21.20
2010,07,08,07,52,21.30
2010,07,08,07,53,21.40
2010,07,08,07,54,21.50
2010,07,08,07,55,21.60
2010,07,08,07,56,21.70
2010,07,08,07,57,21.80
2010,07,08,07,58,22.00
2010,07,08,07,59,22.10
2010,07,08,08,00,22.20
2010,07,08,08,01,22.20
2010,07,08,08,02,22.30
2010,07,08,08,03,22.30
2010,07,08,08,04,22.30
2010,07,08,08,05,22.40
2010,07,08,08,06,22.40
2010,07,08,08,07,22.50
2010,07,08,08,08,22.50
2010,07,08,08,09,22.50
2010,07,08,08,10,22.50
2010,07,08,08,11,22.60
2010,07,08,08,12,22.60
2010,07,08,08,13,22.70
2010,07,08,08,14,22.70
2010,07,08,08,15,22.80
2010,07,08,08,16,22.90
2010,07,08,08,17,23.00
2010,07,08,08,18,23.10
2010,07,08,08,19,23.20
2010,07,08,08,20,23.30
2010,07,08,08,21,23.30
2010,07,08,08,22,23.40
2010,07,08,08,23,23.50
2010,07,08,08,24,23.60
2010,07,08,08,25,23.70
2010,07,08,08,26,23.70
2010,07,08,08,27,23.80
2010,07,08,08,28,23.80
2010,07,08,08,29,23.90
2010,07,08,08,30,23.90
2010,07,08,08,31,24.00
2010,07,08,08,32,24.00
2010,07,08,08,33,24.10
2010,07,08,08,34,24.10
2010,07,08,08,35,24.10
2010,07,08,08,36,24.10
2010,07,08,08,37,24.10
2010,07,08,08,38,24.10
2010,07,08,08,39,24.10
2010,07,08,08,40,24.10
2010,07,08,08,41,24.20
2010,07,08,08,42,24.10
2010,07,08,08,43,24.20
2010,07,08,08,44,24.20
2010,07,08,08,45,24.20
2010,07,08,08,46,24.20
2010,07,08,08,47,24.20
2010,07,08,08,48,24.20
2010,07,08,08,49,24.20
2010,07,08,08,50,24.20
2010,07,08,08,51,24.10
2010,07,08,08,52,24.10
2010,07,08,08,53,24.20
2010,07,08,08,54,24.20
2010,07,08,08,55,24.20
2010,07,08,08,56,24.20
2010,07,08,08,57,24.20
2010,07,08,08,58,24.30
2010,07,08,08,59,24.30
2010,07,08,09,00,24.40
2010,07,08,09,01,24.40
2010,07,08,09,02,24.40
2010,07,08,09,03,24.40
2010,07,08,09,04,24.30
2010,07,08,09,05,24.30
2010,07,08,09,06,24.30
2010,07,08,09,07,24.20
2010,07,08,09,08,24.20
2010,07,08,09,09,24.20
2010,07,08,09,10,24.20
2010,07,08,09,11,24.20
2010,07,08,09,12,24.20
2010,07,08,09,13,24.30
2010,07,08,09,14,24.30
2010,07,08,09,15,24.40
2010,07,08,09,16,24.50
2010,07,08,09,17,24.50
2010,07,08,09,18,24.60
2010,07,08,09,19,24.60
2010,07,08,09,20,24.70
2010,07,08,09,21,24.70
2010,07,08,09,22,24.70
2010,07,08,09,23,24.70
2010,07,08,09,24,24.70
2010,07,08,09,25,24.80
2010,07,08,09,26,24.80
2010,07,08,09,27,24.80
2010,07,08,09,28,24.80
2010,07,08,09,29,24.90
2010,07,08,09,30,24.90
2010,07,08,09,31,25.00
2010,07,08,09,32,25.10
2010,07,08,09,33,25.10
2010,07,08,09,34,25.20
2010,07,08,09,35,25.20
2010,07,08,09,36,25.20
2010,07,08,09,37,25.20
2010,07,08,09,38,25.20
2010,07,08,09,39,25.30
2010,07,08,09,40,25.20
2010,07,08,09,41,25.30
2010,07,08,09,42,25.20
2010,07,08,09,43,25.20
2010,07,08,09,44,25.20
2010,07,08,09,45,25.20
2010,07,08,09,46,25.20
2010,07,08,09,47,25.20
2010,07,08,09,48,25.20
2010,07,08,09,49,25.20
2010,07,08,09,50,25.30
2010,07,08,09,51,25.30
2010,07,08,09,52,25.30
2010,07,08,09,53,25.30
2010,07,08,09,54,25.30
2010,07,08,09,55,25.30
2010,07,08,09,56,25.30
2010,07,08,09,57,25.40
2010,07,08,09,58,25.40
2010,07,08,09,59,25.40
2010,07,08,10,00,25.30
2010,07,08,10,01,25.40
2010,07,08,10,02,25.40
2010,07,08,10,03,25.50
2010,07,08,10,04,25.50
2010,07,08,10,05,25.60
2010,07,08,10,06,25.60
2010,07,08,10,07,25.60
2010,07,08,10,08,25.70
2010,07,08,10,09,25.60
2010,07,08,10,10,25.70
2010,07,08,10,11,25.70
2010,07,08,10,12,25.70
2010,07,08,10,13,25.60
2010,07,08,10,14,25.60
2010,07,08,10,15,25.60
2010,07,08,10,16,25.60
2010,07,08,10,17,25.60
2010,07,08,10,18,25.60
2010,07,08,10,19,25.70
2010,07,08,10,20,25.70
2010,07,08,10,21,25.80
2010,07,08,10,22,25.80
2010,07,08,10,23,25.70
2010,07,08,10,24,25.80
2010,07,08,10,25,25.80
2010,07,08,10,26,25.80
2010,07,08,10,27,25.80
2010,07,08,10,28,25.80
2010,07,08,10,29,25.70
2010,07,08,10,30,25.70
2010,07,08,10,31,25.80
2010,07,08,10,32,25.70
2010,07,08,10,33,25.70
2010,07,08,10,34,25.60
2010,07,08,10,35,25.60
2010,07,08,10,36,25.60
2010,07,08,10,37,25.50
2010,07,08,10,38,25.40
2010,07,08,10,39,25.30
2010,07,08,10,40,25.30
2010,07,08,10,41,25.30
2010,07,08,10,42,25.20
2010,07,08,10,43,25.30
2010,07,08,10,44,25.30
2010,07,08,10,45,25.40
2010,07,08,10,46,25.40
2010,07,08,10,47,25.40
2010,07,08,10,48,25.40
2010,07,08,10,49,25.50
2010,07,08,10,50,25.50
2010,07,08,10,51,25.60
2010,07,08,10,52,25.60
2010,07,08,10,53,25.60
2010,07,08,10,54,25.70
2010,07,08,10,55,25.70
2010,07,08,10,56,25.70
2010,07,08,10,57,25.70
2010,07,08,10,58,25.70
2010,07,08,10,59,25.80
2010,07,08,11,00,25.80
2010,07,08,11,01,25.80
2010,07,08,11,02,25.90
2010,07,08,11,03,25.90
2010,07,08,11,04,25.90
2010,07,08,11,05,25.90
2010,07,08,11,06,25.90
2010,07,08,11,07,25.90
2010,07,08,11,08,26.00
2010,07,08,11,09,26.10
2010,07,08,11,10,26.10
2010,07,08,11,11,26.20
2010,07,08,11,12,26.20
2010,07,08,11,13,26.20
2010,07,08,11,14,26.30
2010,07,08,11,15,26.30
2010,07,08,11,16,26.40
2010,07,08,11,17,26.50
2010,07,08,11,18,26.50
2010,07,08,11,19,26.50
2010,07,08,11,20,26.50
2010,07,08,11,21,26.50
2010,07,08,11,22,26.60
2010,07,08,11,23,26.70
2010,07,08,11,24,26.80
2010,07,08,11,25,26.80
2010,07,08,11,26,26.80
2010,07,08,11,27,26.90
2010,07,08,11,28,26.90
2010,07,08,11,29,27.00
2010,07,08,11,30,26.90
2010,07,08,11,31,26.90
2010,07,08,11,32,27.00
2010,07,08,11,33,27.00
2010,07,08,11,34,26.90
2010,07,08,11,35,26.80
2010,07,08,11,36,26.80
2010,07,08,11,37,26.80
2010,07,08,11,38,26.80
2010,07,08,11,39,26.90
2010,07,08,11,40,26.90
2010,07,08,11,41,26.90
2010,07,08,11,42,27.00
2010,07,08,11,43,26.90
2010,07,08,11,44,27.00
2010,07,08,11,45,27.00
2010,07,08,11,46,27.10
2010,07,08,11,47,27.20
2010,07,08,11,48,27.30
2010,07,08,11,49,27.40
2010,07,08,11,50,27.40
2010,07,08,11,51,27.30
2010,07,08,11,52,27.30
2010,07,08,11,53,27.30
2010,07,08,11,54,27.30
2010,07,08,11,55,27.40
2010,07,08,11,56,27.40
2010,07,08,11,57,27.40
2010,07,08,11,58,27.40
2010,07,08,11,59,27.40
2010,07,08,12,00,27.40
2010,07,08,12,01,27.40
2010,07,08,12,02,27.40
2010,07,08,12,03,27.40
2010,07,08,12,04,27.50
2010,07,08,12,05,27.50
2010,07,08,12,06,27.60
2010,07,08,12,07,27.60
2010,07,08,12,08,27.60
2010,07,08,12,09,27.50
2010,07,08,12,10,27.40
2010,07,08,12,11,27.40
2010,07,08,12,12,27.40
2010,07,08,12,13,27.40
2010,07,08,12,14,27.30
2010,07,08,12,15,27.30
2010,07,08,12,16,27.30
2010,07,08,12,17,27.30
2010,07,08,12,18,27.30
2010,07,08,12,19,27.30
2010,07,08,12,20,27.40
2010,07,08,12,21,27.40
2010,07,08,12,22,27.50
2010,07,08,12,23,27.50
2010,07,08,12,24,27.60
2010,07,08,12,25,27.60
2010,07,08,12,26,27.80
2010,07,08,12,27,27.90
2010,07,08,12,28,28.00
2010,07,08,12,29,28.20
2010,07,08,12,30,28.20
2010,07,08,12,31,28.20
2010,07,08,12,32,28.20
2010,07,08,12,33,28.40
2010,07,08,12,34,28.50
2010,07,08,12,35,28.60
2010,07,08,12,36,28.60
2010,07,08,12,37,28.50
2010,07,08,12,38,28.50
2010,07,08,12,39,28.40
2010,07,08,12,40,28.40
2010,07,08,12,41,28.30
2010,07,08,12,42,28.20
2010,07,08,12,43,28.20
2010,07,08,12,44,28.20
2010,07,08,12,45,28.20
2010,07,08,12,46,28.20
2010,07,08,12,47,28.30
2010,07,08,12,48,28.30
2010,07,08,12,49,28.20
2010,07,08,12,50,28.10
2010,07,08,12,51,28.20
2010,07,08,12,52,28.30
2010,07,08,12,53,28.40
2010,07,08,12,54,28.50
2010,07,08,12,55,28.60
2010,07,08,12,56,28.70
2010,07,08,12,57,28.80
2010,07,08,12,58,28.90
2010,07,08,12,59,28.80
2010,07,08,13,00,28.70
2010,07,08,13,01,28.60
2010,07,08,13,02,28.60
2010,07,08,13,03,28.60
2010,07,08,13,04,28.60
2010,07,08,13,05,28.70
2010,07,08,13,06,28.70
2010,07,08,13,07,28.80
2010,07,08,13,08,28.80
2010,07,08,13,09,28.90
2010,07,08,13,10,28.90
2010,07,08,13,11,28.90
2010,07,08,13,12,28.80
2010,07,08,13,13,28.80
2010,07,08,13,14,28.70
2010,07,08,13,15,28.70
2010,07,08,13,16,28.70
2010,07,08,13,17,28.80
2010,07,08,13,18,28.80
2010,07,08,13,19,28.80
2010,07,08,13,20,28.90
2010,07,08,13,21,29.00
2010,07,08,13,22,29.00
2010,07,08,13,23,29.00
2010,07,08,13,24,29.10
2010,07,08,13,25,29.00
2010,07,08,13,26,28.90
2010,07,08,13,27,28.90
2010,07,08,13,28,28.90
2010,07,08,13,29,28.90
2010,07,08,13,30,28.90
2010,07,08,13,31,28.90
2010,07,08,13,32,28.90
2010,07,08,13,33,28.90
2010,07,08,13,34,28.80
2010,07,08,13,35,28.70
2010,07,08,13,36,28.60
2010,07,08,13,37,28.60
2010,07,08,13,38,28.50
2010,07,08,13,39,28.50
2010,07,08,13,40,28.50
2010,07,08,13,41,28.50
2010,07,08,13,42,28.40
2010,07,08,13,43,28.40
2010,07,08,13,44,28.40
2010,07,08,13,45,28.50
2010,07,08,13,46,28.60
2010,07,08,13,47,28.60
2010,07,08,13,48,28.60
2010,07,08,13,49,28.60
2010,07,08,13,50,28.60
2010,07,08,13,51,28.70
2010,07,08,13,52,28.70
2010,07,08,13,53,28.70
2010,07,08,13,54,28.70
2010,07,08,13,55,28.70
2010,07,08,13,56,28.60
2010,07,08,13,57,28.60
2010,07,08,13,58,28.50
2010,07,08,13,59,28.50
2010,07,08,14,00,28.50
2010,07,08,14,01,28.60
2010,07,08,14,02,28.60
2010,07,08,14,03,28.70
2010,07,08,14,04,28.80
2010,07,08,14,05,28.80
2010,07,08,14,06,28.80
2010,07,08,14,07,28.90
2010,07,08,14,08,29.00
2010,07,08,14,09,29.00
2010,07,08,14,10,29.10
2010,07,08,14,11,29.20
2010,07,08,14,12,29.40
2010,07,08,14,13,29.50
2010,07,08,14,14,29.60
2010,07,08,14,15,29.70
2010,07,08,14,16,29.70
2010,07,08,14,17,29.70
2010,07,08,14,18,29.60
2010,07,08,14,19,29.60
2010,07,08,14,20,29.70
2010,07,08,14,21,29.70
2010,07,08,14,22,29.80
2010,07,08,14,23,29.90
2010,07,08,14,24,30.00
2010,07,08,14,25,30.10
2010,07,08,14,26,30.20
2010,07,08,14,27,30.30
2010,07,08,14,28,30.30
2010,07,08,14,29,30.40
2010,07,08,14,30,30.50
2010,07,08,14,31,30.50
2010,07,08,14,32,30.50
2010,07,08,14,33,30.50
2010,07,08,14,34,30.40
2010,07,08,14,35,30.30
2010,07,08,14,36,30.30
2010,07,08,14,37,30.20
2010,07,08,14,38,30.20
2010,07,08,14,39,30.20
2010,07,08,14,40,30.20
2010,07,08,14,41,30.30
2010,07,08,14,42,30.20
2010,07,08,14,43,30.20
2010,07,08,14,44,30.20
2010,07,08,14,45,30.20
2010,07,08,14,46,30.30
2010,07,08,14,47,30.20
2010,07,08,14,48,30.20
2010,07,08,14,49,30.30
2010,07,08,14,50,30.30
2010,07,08,14,51,30.40
2010,07,08,14,52,30.40
2010,07,08,14,53,30.50
2010,07,08,14,54,30.50
2010,07,08,14,55,30.50
2010,07,08,14,56,30.50
2010,07,08,14,57,30.40
2010,07,08,14,58,30.30
2010,07,08,14,59,30.30
2010,07,08,15,00,30.30
2010,07,08,15,01,30.40
2010,07,08,15,02,30.50
2010,07,08,15,03,30.60
2010,07,08,15,04,30.60
2010,07,08,15,05,30.60
2010,07,08,15,06,30.60
2010,07,08,15,07,30.60
2010,07,08,15,08,30.60
2010,07,08,15,09,30.60
2010,07,08,15,10,30.60
2010,07,08,15,11,30.70
2010,07,08,15,12,30.60
2010,07,08,15,13,30.60
2010,07,08,15,14,30.50
2010,07,08,15,15,30.40
2010,07,08,15,16,30.20
2010,07,08,15,17,30.10
2010,07,08,15,18,30.10
2010,07,08,15,19,30.20
2010,07,08,15,20,30.40
2010,07,08,15,21,30.40
2010,07,08,15,22,30.50
2010,07,08,15,23,30.60
2010,07,08,15,24,30.70
2010,07,08,15,25,30.70
2010,07,08,15,26,30.80
2010,07,08,15,27,30.90
2010,07,08,15,28,30.90
2010,07,08,15,29,30.90
2010,07,08,15,30,30.90
2010,07,08,15,31,30.90
2010,07,08,15,32,30.90
2010,07,08,15,33,30.90
2010,07,08,15,34,31.00
2010,07,08,15,35,31.10
2010,07,08,15,36,31.20
2010,07,08,15,37,31.20
2010,07,08,15,38,31.20
2010,07,08,15,39,31.20
2010,07,08,15,40,31.30
2010,07,08,15,41,31.40
2010,07,08,15,42,31.40
2010,07,08,15,43,31.40
2010,07,08,15,44,31.40
2010,07,08,15,45,31.30
2010,07,08,15,46,31.30
2010,07,08,15,47,31.30
2010,07,08,15,48,31.30
2010,07,08,15,49,31.30
2010,07,08,15,50,31.30
2010,07,08,15,51,31.30
2010,07,08,15,52,31.30
2010,07,08,15,53,31.20
2010,07,08,15,54,31.10
2010,07,08,15,55,31.00
2010,07,08,15,56,31.00
2010,07,08,15,57,30.90
2010,07,08,15,58,30.90
2010,07,08,15,59,30.90
2010,07,08,16,00,30.90
2010,07,08,16,01,30.90
2010,07,08,16,02,31.00
2010,07,08,16,03,31.00
2010,07,08,16,04,31.00
2010,07,08,16,05,31.00
2010,07,08,16,06,31.00
2010,07,08,16,07,31.10
2010,07,08,16,08,31.10
2010,07,08,16,09,31.20
2010,07,08,16,10,31.20
2010,07,08,16,11,31.30
2010,07,08,16,12,31.40
2010,07,08,16,13,31.50
2010,07,08,16,14,31.50
2010,07,08,16,15,31.50
2010,07,08,16,16,31.60
2010,07,08,16,17,31.70
2010,07,08,16,18,31.80
2010,07,08,16,19,31.80
2010,07,08,16,20,31.90
2010,07,08,16,21,31.90
2010,07,08,16,22,32.00
2010,07,08,16,23,32.10
2010,07,08,16,24,32.10
2010,07,08,16,25,32.20
2010,07,08,16,26,32.30
2010,07,08,16,27,32.30
2010,07,08,16,28,32.40
2010,07,08,16,29,32.40
2010,07,08,16,30,32.30
2010,07,08,16,31,32.20
2010,07,08,16,32,32.20
2010,07,08,16,33,32.10
2010,07,08,16,34,32.00
2010,07,08,16,35,32.10
2010,07,08,16,36,32.10
2010,07,08,16,37,32.10
2010,07,08,16,38,32.20
2010,07,08,16,39,32.30
2010,07,08,16,40,32.30
2010,07,08,16,41,32.40
2010,07,08,16,42,32.40
2010,07,08,16,43,32.50
2010,07,08,16,44,32.50
2010,07,08,16,45,32.50
2010,07,08,16,46,32.60
2010,07,08,16,47,32.60
2010,07,08,16,48,32.60
2010,07,08,16,49,32.60
2010,07,08,16,50,32.60
2010,07,08,16,51,32.60
2010,07,08,16,52,32.70
2010,07,08,16,53,32.70
2010,07,08,16,54,32.60
2010,07,08,16,55,32.60
2010,07,08,16,56,32.60
2010,07,08,16,57,32.50
2010,07,08,16,58,32.40
2010,07,08,16,59,32.40
2010,07,08,17,00,32.40
2010,07,08,17,01,32.40
2010,07,08,17,02,32.40
2010,07,08,17,03,32.40
2010,07,08,17,04,32.40
2010,07,08,17,05,32.40
2010,07,08,17,06,32.40
2010,07,08,17,07,32.40
2010,07,08,17,08,32.40
2010,07,08,17,09,32.30
2010,07,08,17,10,32.30
2010,07,08,17,11,32.30
2010,07,08,17,12,32.30
2010,07,08,17,13,32.30
2010,07,08,17,14,32.30
2010,07,08,17,15,32.30
2010,07,08,17,16,32.30
2010,07,08,17,17,32.20
2010,07,08,17,18,32.20
2010,07,08,17,19,32.30